This is the latest recevied weather packets stored in our database for station/object DH5RAE-11. If no packets are shown the sender has not sent any weather packets the latest 10 day(s).
| Time | Temp. | Humidity | Pressure | Rain* | Wind** | Luminosity | Snow |
|---|---|---|---|---|---|---|---|
| 1787820639 | 24.44° C | 65% | 1020.2 hPa | 0 mm | - | - | - |
| 1787819831 | 23.89° C | 69% | 1020 hPa | 0 mm | - | - | - |
| 1787819160 | 23.89° C | 69% | 1020 hPa | 0 mm | - | - | - |
| 1787818422 | 23.33° C | 71% | 1020 hPa | 0 mm | - | - | - |
| 1787817822 | 22.78° C | 77% | 1020.1 hPa | 0 mm | - | - | - |
| 1787816945 | 22.78° C | 82% | 1020 hPa | 0 mm | - | - | - |
| 1787816137 | 20.56° C | 86% | 1020 hPa | 0 mm | - | - | - |
| 1787815537 | 20.56° C | 88% | 1020 hPa | 0 mm | - | - | - |
| 1787814661 | 20.56° C | 91% | 1020.1 hPa | 0 mm | - | - | - |
| 1787813922 | 18.89° C | 91% | 1020.2 hPa | 0 mm | - | - | - |
| 1787813185 | 17.78° C | 91% | 1020.2 hPa | 0 mm | - | - | - |
| 1787812170 | 14.44° C | 92% | 1020.2 hPa | 0 mm | - | - | - |
| 1787811501 | 14.44° C | 91% | 1020.1 hPa | 0 mm | - | - | - |
| 1787810901 | 14.44° C | 91% | 1020.2 hPa | 0 mm | - | - | - |
| 1787810301 | 14.44° C | 91% | 1020.1 hPa | 0 mm | - | - | - |
| 1787809492 | 13.89° C | 91% | 1020.3 hPa | 0 mm | - | - | - |
| 1787808891 | 12.78° C | 91% | 1020.8 hPa | 0 mm | - | - | - |
| 1787808290 | 12.78° C | 91% | 1020.8 hPa | 0 mm | - | - | - |
| 1787807550 | 12.22° C | 90% | 1020.8 hPa | 0 mm | - | - | - |
| 1787806950 | 12.22° C | 90% | 1020.8 hPa | 0 mm | - | - | - |
| 1787806350 | 12.22° C | 90% | 1020.6 hPa | 0 mm | - | - | - |
| 1787805474 | 12.22° C | 90% | 1020.4 hPa | 0 mm | - | - | - |
| 1787804668 | 12.22° C | 90% | 1020.2 hPa | 0 mm | - | - | - |
| 1787804068 | 12.22° C | 90% | 1020 hPa | 0 mm | - | - | - |
| 1787803399 | 12.22° C | 90% | 1020 hPa | 0 mm | - | - | - |
* Rain latest hour (hover to see other rain measurements)
** Current wind speed in m/s (hover to see current wind gust speed)